Вернуться в каталог

STARLINK-2507

АктивенСвязьVLEO
NORAD 48316·PAYLOAD·🇺🇸 United States

Запущен Apr 29, 2021 с Cape Canaveral Space Force Station

Loading…

Ближайшие Пролёты (ближайшие 24 часа)

TLE

СвежийSource: CelesTrak SupGP

Эпоха: Sep 14, 2026, 13:58 UTC

1 48316C 21036AS  26257.58243056  .00052099  00000+0  16745-2 0  2575
2 48316  53.1566 299.8594 0001211  84.5774 107.1388 15.31692491    16

Отслеживайте STARLINK-2507 в реальном времени с AllMySat

Download on the App Store